sat.trackr.live / text

‹ back to catalog

STARLINK-30466

NORAD 57904 · 2023-146P

PAYLOAD ACTIVE UNKNOWN

§ Identity

Operator
Country
US
Launch date
2023-09-20
Launch site
AFETR
Launch vehicle
Mass (kg)
RCS (m²)

Purposes: comms

External: N2YO · Heavens-Above · Gunter

§ Orbital elements

Epoch: 2026-09-20T03:38:09.974112Z

Period
94.27 min
Inclination
43.0068°
Eccentricity
0.0001525
Mean motion
15.27576902 rev/d
Perigee alt
482.0 km
Apogee alt
484.1 km
Semi-major
6,861.2 km
B*
-5.0250e-6
RAAN
296.2468°
Arg perigee
268.9581°
Mean anomaly
91.1096°
Rev number
16,573

§ Raw data

STARLINK-304661 57904U 23146P   26263.15150433 -.00000401  00000+0 -50250-5 0  99952 57904  43.0068 296.2468 0001525 268.9581  91.1096 15.27576902165739

JSON: /api/v1/satellites/57904 · /tle

For live sub-satellite position, see the globe view (requires WebGL).

§ Visibility from observer

Set your observer location to see the next 7 days of passes ≥ 10°. The values pass through the URL so the page stays shareable.

No JS? Fill the form by hand. The geolocation button needs JavaScript.